Regional Weather Roundup
Issued by NWS

Home | Current Version | Previous Version | Graphics & Text | Print | Product List | Glossary On
Versions: 1 2 3 4 5 6 7 8 9 10 11 12 13 14 15 16 17 18 19 20 21 22 23 24 25 26 27 28 29 30 31 32 33 34 35 36 37 38 39 40 41 42 43 44 45 46 47 48 49 50
393
ASUS44 KMEG 221110
RWRTN
TENNESSEE HOURLY STATE WEATHER ROUNDUP
NATIONAL WEATHER SERVICE MEMPHIS TN
500 AM CST SUN JAN 22 2017

TNZ002-004-019-021-049-052-054-088>092-221200-
WEST TENNESSEE

CITY           SKY/WX    TMP DP  RH WIND       PRES   REMARKS
MEMPHIS INTL   CLOUDY    55  54  96 S8        29.42R
NWS MEMPHIS      N/A     54 N/A N/A MISG        N/A
JACKSON        LGT RAIN  56  55  97 E8        29.41F
DYERSBURG      CLOUDY    55  52  88 E6        29.42F
UNION CITY     CLOUDY   N/A N/A N/A CALM      29.44S
PARIS          MOCLDY    54  48  82 CALM      29.45R
HUNTINGDON     CLOUDY    55  52  88 CALM      29.45R
$$

TNZ008-025-027-028-033-062-065-066-221200-
NORTH MIDDLE TENNESSEE

CITY           SKY/WX    TMP DP  RH WIND       PRES   REMARKS
NASHVILLE      CLOUDY    55  50  83 E3        29.47F
PORTLAND       CLOUDY    54  50  87 CALM      29.48F
CLARKSVILLE    CLOUDY    52  48  86 E5        29.46F
SMYRNA         LGT RAIN  52  51  97 S3        29.48F
GALLATIN       CLOUDY    54  50  87 NE5       29.51F
CROSSVILLE     LGT RAIN  53  50  89 SE10G18   29.50F
$$

TNZ061-075-076-078-094-096-097-221200-
SOUTH MIDDLE TENNESSEE

CITY           SKY/WX    TMP DP  RH WIND       PRES   REMARKS
TULLAHOMA      CLOUDY    54  54 100 W8        29.48F
WINCHESTER     CLOUDY    55  54  94 N13       29.43F
MCMINNVILLE    CLOUDY    55  55 100 CALM      29.49R
COLUMBIA       MOCLDY   N/A N/A N/A VRB5      29.42F
SHELBYVILLE    CLOUDY    57  57 100 S10       29.48F
$$

TNZ017-018-042-046-047-221200-
NORTHEAST TENNESSEE

CITY           SKY/WX    TMP DP  RH WIND       PRES   REMARKS
TRI CITIES     MOCLDY    49  47  93 NE3       29.60F
ELIZABETHTON   MOCLDY    52  48  87 CALM      29.60F
$$

TNZ012-013-036-069-073-074-221200-
CENTRAL EAST TENNESSEE

CITY           SKY/WX    TMP DP  RH WIND       PRES   REMARKS
KNOXVILLE      LGT RAIN  51  49  92 NE6       29.53F FOG
OAK RIDGE      LGT RAIN  50  47  89 E6        29.56F
GATLINBURG     PTCLDY    46  46 100 CALM      29.56F
MORRISTOWN     PTCLDY    52  52 100 NE5       29.56S
JACKSBORO      CLOUDY    45  45 100 CALM      29.59F FOG
$$

TNZ083-085-099-221200-
SOUTHEAST TENNESSEE

CITY           SKY/WX    TMP DP  RH WIND       PRES   REMARKS
CHATTANOOGA    CLOUDY    58  54  86 SW12      29.46F
$$

SKY/WX REPORTED AS FAIR MEANS FEW OR NO CLOUDS BELOW
12 THOUSAND FEET.





USA.gov is the U.S. government's official web portal to all federal, state and local government web resources and services.